Regional Weather Roundup
Issued by NWS

Home | Current Version | Previous Version | Text Only | Print | Product List | Glossary Off
Versions: 1 2 3 4 5 6 7 8 9 10 11 12 13 14 15 16 17 18 19 20 21 22 23 24 25 26 27

000
ASUS45 KBOI 271310
RWRID

IDAHO REGIONAL WEATHER ROUNDUP
NATIONAL WEATHER SERVICE BOISE ID
700 AM MDT TUE SEP 27 2016

NOTE: "FAIR" INDICATES FEW OR NO CLOUDS BELOW 12000 FEET
WITH NO SIGNIFICANT WEATHER AND/OR OBSTRUCTIONS TO VISIBILITY

IDZ012-014-271400-
SOUTHWEST IDAHO


CITY           SKY/WX    TMP DP  RH WIND       PRES   REMARKS
BOISE          CLEAR     55  42  61 S6        30.11S
CALDWELL       CLEAR     48  42  80 NE5       30.11R HAZE
MOUNTAIN HOME  CLEAR     52  45  79 E12       30.11F
$$

IDZ016-017-271400-
SOUTHCENTRAL IDAHO


CITY           SKY/WX    TMP DP  RH WIND       PRES   REMARKS
BURLEY         CLEAR     41  40  96 NE3       30.19S
JEROME         CLEAR     51  43  74 NE10      30.18S
TWIN FALLS     CLEAR     46  40  79 E6        30.17F
$$

IDZ019>023-271400-
SOUTHEAST IDAHO


CITY           SKY/WX    TMP DP  RH WIND       PRES   REMARKS
IDAHO FALLS    CLOUDY    40  38  93 N5        30.26R
POCATELLO      CLOUDY    39  37  92 CALM      30.24S
REXBURG        CLOUDY    40  39  97 CALM      30.27R
$$

IDZ006-010-011-018-031-032-271400-
CENTRAL IDAHO MOUNTAINS


CITY           SKY/WX    TMP DP  RH WIND       PRES   REMARKS
MCCALL         CLEAR     39  35  86 CALM      30.22F
HAILEY         CLEAR     46  41  81 NW12      30.29S
STANLEY          N/A     30  29  96 S3        30.36S
SALMON         CLEAR     37  37 100 CALM      30.25R
CHALLIS        CLEAR     39  34  82 CALM      30.27S
$$

IDZ002-004-006-007-026-271400-
NORTHERN IDAHO


CITY           SKY/WX    TMP DP  RH WIND       PRES   REMARKS
LEWISTON       CLEAR     60  47  61 CALM      30.02R
LOWELL           N/A     50  47  89 N5        30.13R
COEUR D`ALENE  CLEAR     46  44  93 VRB3      30.03R
MULLAN PASS    CLEAR     56  38  50 S6        30.19S
$$




USA.gov is the U.S. government's official web portal to all federal, state and local government web resources and services.